Regional Weather Roundup
Issued by NWS Green Bay, WI

Home | Current Version | Previous Version | Graphics & Text | Print | Product List | Glossary Off
Versions: 1 2 3 4 5 6 7 8 9 10 11 12 13 14 15 16 17 18 19 20 21 22 23 24 25 26 27 28 29 30 31 32 33 34 35 36 37 38 39 40 41 42 43 44 45 46 47 48 49 50

000
ASUS43 KGRB 201010
RWRGRB

NORTH-CENTRAL AND NORTHEAST WISCONSIN REGIONAL WEATHER ROUNDUP
NATIONAL WEATHER SERVICE GREEN BAY WI
500 AM CDT WED AUG 20 2014

WIZ005-009-010>012-018-019-201100-
NORTH CENTRAL WISCONSIN

CITY           SKY/WX    TMP DP  RH WIND       PRES   REMARKS
IRONWOOD       CLOUDY    55  55 100 CALM      29.82S VSB 1/2
MANITOWISH WTR CLOUDY    56  56 100 N6        29.84R
ARBOR VITAE    CLOUDY    59  57  91 CALM      29.84R
EAGLE RIVER    CLOUDY    57  57 100 N6        29.83R
LAND O LAKES   CLOUDY    56  56  99 N5        29.84R FOG
RHINELANDER    CLOUDY    59  57  93 N3        29.84R
PHILLIPS       CLOUDY    58  57  96 NW3       29.84R
ANTIGO         CLOUDY    59  58  99 W6        29.83R
TOMAHAWK       CLOUDY    58  56  96 CALM      29.84R
MERRILL        CLOUDY    60  59  98 NW3       29.84R
$$

WIZ013-073-201100-
NORTHEAST WISCONSIN

CITY           SKY/WX    TMP DP  RH WIND       PRES   REMARKS
IRON MOUNTAIN  CLOUDY    59  56  89 NW6       29.79R
MARINETTE      CLOUDY    63  57  82 CALM      29.77S
OCONTO         CLOUDY    59  59 100 CALM      29.79R
$$

WIZ017-030-035>037-045-201100-
CENTRAL WISCONSIN

CITY           SKY/WX    TMP DP  RH WIND       PRES   REMARKS
MEDFORD        CLOUDY    58  58  99 CALM      29.86R
WAUSAU         CLOUDY    60  58  92 NW8       29.83R
MOSINEE        CLOUDY    59  59 100 NW6       29.85R
MARSHFIELD     CLEAR     60  59  96 N3        29.83S
WISC RAPIDS    CLOUDY    61  60  97 CALM      29.84R FOG
STEVENS POINT  CLOUDY    59  59  99 CALM      29.83S FOG
WAUPACA        CLOUDY    64  63  95 CALM      29.82R
SHAWANO        CLOUDY    62  60  94 SW3       29.81R
CLINTONVILLE   CLOUDY    61  61 100 CALM      29.81R
$$

WIZ038-039-048-051-201100-
FOX VALLEY

CITY           SKY/WX    TMP DP  RH WIND       PRES   REMARKS
NWS GREEN BAY  MOCLDY    61  60  97 NW7       29.80R
APPLETON       FOG       59  59 100 W7        29.81R VSB 1/2
OSHKOSH        PTCLDY    63  62  97 W5        29.81R
FOND DU LAC    MOCLDY    62  60  93 CALM      29.81R
$$

WIZ022-050-052-201100-
EAST CENTRAL WISCONSIN

CITY           SKY/WX    TMP DP  RH WIND       PRES   REMARKS
STURGEON BAY   CLOUDY    61  57  88 CALM      29.79R
MANITOWOC      CLOUDY    63  62  97 CALM      29.80R
SHEBOYGAN      MOCLDY    61  60  97 W5        29.80R
$$

LMZ563-521-522-541>543-201100-
LAKESHORE

STATION/POSITION TIME  TEMP    WIND        PRES    VSBY  WAVE
                       AIR SEA DIR/SP/G                  HT/PER
                 (UTC) (F)     (DEG/KT/KT) (MB)    (MI)  (FT/S)
SHEBOYGAN LKSHOR 1000   65 67  290/  6/  7 1009.0R
KEWAUNEE LKSHORE 1000   62     290/  2/  3 1007.7R
NORTHPORT PIER   1000   63     310/  9/ 11 1008.1S
N MID LAKE BUOY  1000   61 62  300/  8/ 10 1007.0R         1/ 5
S GREEN BAY BUOY 1000   65     VRB 10      1009.9R
SISTER BAY LKSHO 0900   62     340/ 11/ 11   N/A
CHAMBERS ISLAND  1000   63     280/  2/  6 1008.5R
MENOMINEE LKSHOR 1000   63     270/  4/  7 1009.0R
$$



USA.gov is the U.S. government's official web portal to all federal, state and local government web resources and services.